This is the latest recevied weather packets stored in our database for station/object SP5MRF. If no packets are shown the sender has not sent any weather packets the latest 10 day(s).
| Time | Temp. | Humidity | Pressure | Rain* | Wind** | Luminosity | Snow |
|---|---|---|---|---|---|---|---|
| 1788031736 | 15.56° C | 80% | 1011.1 hPa | 0 mm | - | - | - |
| 1788031258 | 15.56° C | 80% | 1011 hPa | 0 mm | - | - | - |
| 1788029816 | 16.11° C | 78% | 1010.8 hPa | 0 mm | - | - | - |
| 1788029336 | 16.11° C | 78% | 1010.6 hPa | 0 mm | - | - | - |
| 1788028860 | 16.67° C | 77% | 1010.7 hPa | 0 mm | - | - | - |
| 1788028379 | 16.67° C | 77% | 1010.5 hPa | 0 mm | - | - | - |
| 1788027896 | 17.22° C | 76% | 1010.5 hPa | 0 mm | - | - | - |
| 1788027417 | 17.22° C | 76% | 1010.3 hPa | 0 mm | - | - | - |
| 1788026937 | 17.78° C | 76% | 1010.4 hPa | 0 mm | - | - | - |
| 1788026458 | 17.78° C | 75% | 1010.2 hPa | 0 mm | - | - | - |
| 1788025016 | 18.89° C | 74% | 1010 hPa | 0 mm | - | - | - |
| 1788024536 | 19.44° C | 74% | 1009.9 hPa | 0 mm | - | - | - |
| 1788024056 | 19.44° C | 74% | 1009.8 hPa | 0 mm | - | - | - |
| 1788023576 | 20° C | 73% | 1009.8 hPa | 0 mm | - | - | - |
| 1788022136 | 21.11° C | 71% | 1009.7 hPa | 0 mm | - | - | - |
| 1788021656 | 21.11° C | 71% | 1009.6 hPa | 0 mm | - | - | - |
| 1788021177 | 21.67° C | 71% | 1009.5 hPa | 0 mm | - | - | - |
| 1788020701 | 21.67° C | 71% | 1009.6 hPa | 0 mm | - | - | - |
| 1788020218 | 21.67° C | 72% | 1009.6 hPa | 0 mm | - | - | - |
| 1788019736 | 22.22° C | 71% | 1009.5 hPa | 0 mm | - | - | - |
| 1788019257 | 21.67° C | 70% | 1009.4 hPa | 0 mm | - | - | - |
| 1788017336 | 22.78° C | 70% | 1009.3 hPa | 0 mm | - | - | - |
| 1788016858 | 22.78° C | 71% | 1009.3 hPa | 0 mm | - | - | - |
| 1788016377 | 22.22° C | 71% | 1009.3 hPa | 0 mm | - | - | - |
| 1788015417 | 22.22° C | 71% | 1009.4 hPa | 0 mm | - | - | - |
* Rain latest hour (hover to see other rain measurements)
** Current wind speed in m/s (hover to see current wind gust speed)